User: anonymous   Login
Location: Byszew
(52.1813°N, 19.2693°E)
Time: 10:21:06
(UTC+00:00)
Language:

Cosmos 2219 Rocket - Orbit

View from above orbital plane
View from above orbital plane
View from above satellite
View from above satellite

Ground track
Ground track

The orbit data is extracted from the following two-line orbital elements,

1 22220U 92076B   21132.66123444  .00000126  00000-0  87199-4 0  9998
2 22220  70.9994 298.5747 0014997 261.6949 173.8266 14.16468099472629
Epoch (UTC): 12 May 2021 15:52:10
Eccentricity: 0.0014997
inclination: 70.9994°
perigee height: 826 km
apogee height: 848 km
right ascension of ascending node: 298.5747°
argument of perigee: 261.6949°
revolutions per day: 14.16468099
mean anomaly at epoch: 173.8266°
orbit number at epoch: 47262

The dashed part of the orbit path shows where the satellite is in the earth's shadow,  

DLR